Hourly Data Report for August 18, 2017

All times are specified in Local Standard Time (LST). Add 1 hour to adjust for Daylight Saving Time where and when it is observed.

ST. STEPHEN
NEW BRUNSWICK

45°12'36.600" N
67°15'10.300" W
26.10 m
8104935
71607
WSS

Download Data

Hourly Data (August 2017)
Hourly Data Report for August 18, 2017
Temp Definition
°C
Dew Point Temp Definition
°C
Rel Hum Definition
%
Wind Dir Definition
10's deg

Wind Spd Definition
km/h
Visibility Definition
km
Stn Press Definition
kPa
Hmdx Definition


Wind Chill Definition


Weather Definition


TIME
00:00 11.0 9.6 91   0   101.21     LegendNANA
01:00 10.6 9.1 91 28 1   101.22     LegendNANA
02:00 10.4 9.1 92 26 4   101.23     LegendNANA
03:00 10.2 9.1 93   0   101.23     LegendNANA
04:00 10.2 8.9 92 25 1   101.22     LegendNANA
05:00 9.9 8.9 94 3 3   101.24     LegendNANA
06:00 10.1 9.2 94   0   101.28     LegendNANA
07:00 11.1 10.1 93 0 1   101.30     LegendNANA
08:00 14.5 11.4 82   0   101.32     LegendNANA
09:00 17.1 11.7 70   0   101.31     LegendNANA
10:00 17.9 12.9 73 8 4   101.34     LegendNANA
11:00 19.2 13.2 68 13 3   101.40     LegendNANA
12:00 21.4 12.7 58 11 5   101.35     LegendNANA
13:00 21.0 12.9 60 11 6   101.31     LegendNANA
14:00 20.9 13.3 62 15 7   101.25     LegendNANA
15:00 21.1 13.6 62 16 7   101.26     LegendNANA
16:00 20.9 12.3 58 15 10   101.27     LegendNANA
17:00 20.0 12.3 61 13 6   101.25     LegendNANA
18:00 17.8 13.5 76 11 5   101.24     LegendNANA
19:00 16.3 14.0 86 7 4   101.23     LegendNANA
20:00 15.8 13.2 85 8 4   101.22     LegendNANA
21:00 14.9 12.4 85 11 6   101.23     LegendNANA
22:00 14.1 12.7 92 12 5   101.25     LegendNANA
23:00 14.1 13.1 94 10 3   101.27     LegendNANA

Notes on Data Quality.

Legend

  • E = Estimated
  • M = Missing
  • NA = Not Available
  • ‡ = Partner data that is not subject to review by the National Climate Archives
Date modified: